Weather History for Wautoma, WI

Change the Weather History Date:

Tuesday, October 9, 2012

  Actual Average (KPCZ) Record (KPCZ)
Temperature  
Mean Temperature 46 °F -  
Max Temperature 54 °F 60 °F 80 °F (2011)
Min Temperature 37 °F 40 °F 25 °F (1989)
Degree Days  
Heating Degree Days 20    
Moisture  
Dew Point 42 °F    
Average Humidity 87    
Maximum Humidity 100    
Minimum Humidity 42    
Precipitation  
Precipitation 0.39 in - - ()
Sea Level Pressure  
Sea Level Pressure 29.80 in    
Wind  
Wind Speed 7 mph (WSW)    
Max Wind Speed 18 mph    
Max Gust Speed 29 mph    
Visibility 6 miles    
Events Rain    
Averages and records for this station are not official NWS values.
T = Trace of Precipitation, MM = Missing Value Source: NWS Daily Summary

Daily Weather History Graph

Daily Weather History Graph

Search for Another Location

Airport:

Trip Planner

Search our weather history database for the weather conditions in past years. The results will help you decide how hot, cold, wet, or windy it might be!

Date:

Astronomy

Oct. 09, 2012 Rise Set
Actual Time 7:05 AM CDT 6:22 PM CDT
Civil Twilight 6:36 AM CDT 6:51 PM CDT
Nautical Twilight 6:02 AM CDT 7:25 PM CDT
Astronomical Twilight 5:29 AM CDT 7:58 PM CDT
Moon 12:29 AM CDT (10/9) 3:01 PM CDT (10/9)
Length of Visible Light 12h 15m
Length of Day
11h 17m
Last Quarter, 36% of the Moon is Illuminated
Oct 9
Last Quarter
Oct 15
New
Oct 21
First Quarter
Oct 29
Full
Nov 6
Last Quarter

Hourly Weather History & Observations

Time (CDT) Temp. Windchill Dew Point Humidity Pressure Visibility Wind Dir Wind Speed Gust Speed Precip Events Conditions
12:56 AM 54.0 °F - 32.0 °F 43% 29.79 in 10.0 mi SSW 11.5 mph - N/A   Overcast
1:56 AM 54.9 °F - 32.0 °F 42% 29.79 in 10.0 mi SSW 13.8 mph 23.0 mph N/A   Clear
2:56 AM 54.0 °F - 32.9 °F 45% 29.79 in 10.0 mi SW 13.8 mph 24.2 mph N/A   Mostly Cloudy
3:56 AM 52.0 °F - 34.9 °F 52% 29.79 in 10.0 mi SW 8.1 mph - 0.00 in   Mostly Cloudy
4:56 AM 52.0 °F - 34.9 °F 52% 29.79 in 10.0 mi Calm Calm - 0.00 in Rain Light Rain
5:56 AM 50.0 °F - 37.9 °F 63% 29.79 in 10.0 mi South 8.1 mph - 0.00 in Rain Light Rain
6:56 AM 46.9 °F - 41.0 °F 80% 29.80 in 8.0 mi Calm Calm - 0.01 in Rain Light Rain
7:56 AM 45.9 °F - 43.0 °F 90% 29.81 in 7.0 mi Calm Calm - 0.02 in Rain Light Rain
8:28 AM 44.6 °F - 44.6 °F 100% 29.80 in 2.5 mi Calm Calm - 0.04 in Rain Light Rain
8:41 AM 44.6 °F - 44.6 °F 100% 29.81 in 2.5 mi Calm Calm - 0.06 in Rain Light Rain
8:44 AM 44.6 °F - 44.6 °F 100% 29.81 in 3.0 mi Calm Calm - 0.06 in Rain Light Rain
8:56 AM 45.0 °F - 43.0 °F 93% 29.81 in 2.0 mi Calm Calm - 0.08 in Rain Light Rain
9:00 AM 44.6 °F - 42.8 °F 93% 29.80 in 1.8 mi Calm Calm - 0.01 in Rain Light Rain
9:03 AM 44.6 °F - 42.8 °F 93% 29.80 in 2.0 mi Calm Calm - 0.01 in Rain Light Rain
9:07 AM 44.6 °F - 42.8 °F 93% 29.80 in 3.0 mi Calm Calm - 0.01 in Rain Light Rain
9:18 AM 44.6 °F - 42.8 °F 93% 29.80 in 3.0 mi Calm Calm - 0.04 in Rain Light Rain
9:56 AM 45.0 °F - 43.0 °F 93% 29.80 in 6.0 mi Calm Calm - 0.06 in Rain Light Rain
10:56 AM 45.9 °F - 43.9 °F 93% 29.78 in 10.0 mi Calm Calm - 0.01 in   Overcast
11:27 AM 46.4 °F - 44.6 °F 93% 29.77 in 10.0 mi Calm Calm - N/A   Overcast
11:56 AM 46.9 °F - 45.0 °F 93% 29.76 in 6.0 mi Calm Calm - 0.00 in Rain Light Rain
12:56 PM 46.9 °F - 45.9 °F 96% 29.77 in 2.0 mi SW 8.1 mph - 0.03 in Rain Light Rain
1:12 PM 46.4 °F 42.9 °F 46.4 °F 100% 29.76 in 3.0 mi WSW 6.9 mph - 0.01 in Rain Light Rain
1:28 PM 46.4 °F 43.5 °F 46.4 °F 100% 29.75 in 3.0 mi SW 5.8 mph - 0.03 in Rain Light Rain
1:56 PM 47.8 °F - 46.9 °F 97% 29.75 in 2.5 mi SW 8.1 mph - 0.05 in Rain Light Rain
2:05 PM 48.2 °F - 46.4 °F 93% 29.75 in 3.0 mi SW 8.1 mph - 0.01 in Rain Light Rain
2:13 PM 48.2 °F - 46.4 °F 93% 29.76 in 2.5 mi SW 11.5 mph - 0.02 in Rain Light Rain
2:20 PM 48.2 °F - 46.4 °F 93% 29.76 in 2.5 mi SW 8.1 mph - 0.02 in Rain Light Rain
2:38 PM 48.2 °F - 46.4 °F 93% 29.76 in 2.5 mi SW 12.7 mph 18.4 mph 0.04 in Rain Light Rain
2:42 PM 48.2 °F - 46.4 °F 93% 29.76 in 3.0 mi WSW 10.4 mph 18.4 mph 0.04 in Rain Light Rain
2:56 PM 46.9 °F - 43.9 °F 89% 29.78 in 2.0 mi WNW 18.4 mph 28.8 mph 0.06 in Rain Light Rain
3:00 PM 46.4 °F 39.8 °F 42.8 °F 87% 29.79 in 3.0 mi WNW 16.1 mph 24.2 mph 0.00 in Rain Light Rain
3:56 PM 43.0 °F 37.7 °F 41.0 °F 93% 29.81 in 5.0 mi West 9.2 mph - 0.02 in Rain Light Rain
4:11 PM 42.8 °F 37.5 °F 41.0 °F 93% 29.81 in 5.0 mi West 9.2 mph - 0.00 in Rain Light Rain
4:48 PM 42.8 °F 37.0 °F 41.0 °F 93% 29.82 in 4.0 mi West 10.4 mph - 0.04 in Rain Light Rain
4:56 PM 43.0 °F 37.2 °F 39.9 °F 89% 29.82 in 4.0 mi West 10.4 mph 19.6 mph 0.04 in Rain Light Rain
5:06 PM 42.8 °F 38.0 °F 39.2 °F 87% 29.82 in 9.0 mi West 8.1 mph - 0.01 in Rain Light Rain
5:56 PM 41.9 °F - 41.0 °F 97% 29.82 in 10.0 mi Calm Calm - 0.01 in   Clear
6:56 PM 41.0 °F 37.1 °F 39.9 °F 96% 29.84 in 10.0 mi SW 5.8 mph - N/A   Partly Cloudy
7:56 PM 41.0 °F - 39.9 °F 96% 29.84 in 10.0 mi Calm Calm - N/A   Overcast
8:56 PM 41.9 °F 36.9 °F 39.9 °F 93% 29.85 in 10.0 mi WSW 8.1 mph - 0.00 in   Overcast
9:56 PM 39.9 °F 35.1 °F 38.8 °F 96% 29.85 in 10.0 mi WSW 6.9 mph - N/A   Scattered Clouds
10:56 PM 37.9 °F - 37.9 °F 100% 29.86 in 10.0 mi Calm Calm - N/A   Partly Cloudy
11:56 PM 38.8 °F 33.2 °F 34.9 °F 86% 29.87 in 6.0 mi West 8.1 mph - N/A   Clear